STARLINK-1700 (46549 NORAD) Tracking and Keplerian Element Data

This shows tracking and keplerian element data for the satellite.

Feedback or suggestion? Click here.




ElementValue
Catalog46549
NameSTARLINK-1700
Epoch Orbit184
Epoch Day336.91667824
Epoch Year2020
RAAN172.7688
Inclination52.9981
Eccentricity0.0001593
Argument of Perigee70.064
Mean Anonmoly19.1618
Mean Motion15.05569658
Decay Rate0.00015181
L11 46549U 20070T 20336.91667824 .00015181 00000-0 10591-2 0 9998
L22 46549 52.9981 172.7688 0001593 70.0640 19.1618 15.05569658 1847

Live tracking and technical data element details for STARLINK-1700 (NORAD 46549). STARLINK-1700 can be tracked NOW for your location showing map with azimuth and elevation plus other details from your city location.

Track the satellite on the map from your city or location and see movement details for azimuth, elevation, latitude, longitude, range, height, and movement on the map or in text.







IsCatalogInMostPopularTable: catalog: 46549, numindb: 15
Update: records affected: 1



GetName: 46549 STARLINK-1700

Hit Count: updated at: Wed, 02 Dec 2020 19:26:33 GMT